Simultaneous Nadir Overpasses (SNOs) Predictions

Prediction of SNOs between NOAA-19 and TERRA Satellite Orbit:

Table of predicted SNOs for the next 14.0 days since TLE Epoch: 6/23/2017
Index Date (NOAA-19) Time (NOAA-19) Lat,Lon (NOAA-19) SZA (NOAA-19 ) Date (TERRA) Time (TERRA) Lat,Lon (TERRA) SZA (TERRA ) Distance(km) Time Diff (sec)
1 06/24/2017 05:28:05 75.58, 109.30 52.39 06/24/2017 05:29:10 75.60, 109.29 52.42 2.31 65
2 06/24/2017 06:19:03 -75.52, -83.24 127.66 06/24/2017 06:18:39 -75.53, -83.27 127.66 1.87 24
3 06/26/2017 11:01:52 -75.58,-154.09 127.55 06/26/2017 11:02:55 -75.60,-154.17 127.53 2.56 63
4 06/26/2017 11:52:54 75.55, 13.26 52.43 06/26/2017 11:52:22 75.52, 13.25 52.38 3.73 32
5 06/28/2017 16:35:43 75.59, -57.52 52.56 06/28/2017 16:36:37 75.62, -57.52 52.59 3.18 54
6 06/28/2017 17:26:40 -75.53, 109.94 127.50 06/28/2017 17:26:06 -75.56, 109.93 127.48 2.58 34
7 06/30/2017 22:09:29 -75.60, 39.07 127.31 06/30/2017 22:10:22 -75.61, 39.01 127.30 1.99 53
8 06/30/2017 23:00:32 75.57,-153.57 52.67 06/30/2017 22:59:48 75.58,-153.44 52.67 3.77 44
9 07/03/2017 03:43:21 75.62, 135.62 52.87 07/03/2017 03:44:04 75.62, 135.62 52.88 0.70 43
10 07/03/2017 04:34:17 -75.56, -56.91 127.18 07/03/2017 04:33:33 -75.56, -56.92 127.19 0.49 44
11 07/05/2017 09:17:06 -75.63,-127.79 126.93 07/05/2017 09:17:48 -75.65,-127.73 126.90 3.19 42
12 07/05/2017 10:08:09 75.55, 39.70 53.01 07/05/2017 10:07:15 75.57, 39.67 53.02 1.90 54
13 07/07/2017 14:50:59 75.66, -31.28 53.32 07/07/2017 14:51:30 75.66, -31.14 53.34 3.94 31




NCC Satellite Simultaneous Nadir Overpasses (SNOs) Prediction Service
